Torna al catalogo

STARLINK-4364

AttivoComunicazioniSSO
NORAD 53230·PAYLOAD·🇺🇸 United States

Lanciato Jul 22, 2022 da Vandenberg Space Force Base

Loading…

Prossimi Passaggi (prossime 24 ore)

TLE

AggiornatoSource: CelesTrak SupGP

Epoca: Sep 14, 2026, 21:51 UTC

1 53230C 22084AT  26257.91090278 -.00016280  00000+0 -50542-3 0  2571
2 53230  97.2840 313.7003 0001324  86.8188  34.4482 15.33444679    13

Traccia STARLINK-4364 in tempo reale con AllMySat

Download on the App Store